EW7199 Weather Reports


time (UTC)temp
C
wind
direction
speed
KPH
gust
KPH
rain 1hr
cm
rain 24hr
cm
rain mn
cm
humidity
%
barometer
mb
20260906052413 26 136 0.0 0.0 0.00 0.00 0.00 58 1017.4
20260906051912 26 136 0.0 0.0 0.00 0.00 0.00 54 1017.4
20260906051412 26 136 0.0 0.0 0.00 0.00 0.00 54 1017.3
20260906050912 26 136 0.0 0.0 0.00 0.00 0.00 54 1017.4
20260906050412 26 136 0.0 0.0 0.00 0.00 0.00 53 1017.4
20260906045913 26 137 0.0 0.0 0.00 0.00 0.00 55 1017.3
20260906045413 26 137 0.0 0.0 0.00 0.00 0.00 58 1017.3
20260906044912 25 137 0.0 0.0 0.00 0.00 0.00 59 1017.2
20260906044413 25 138 0.0 0.0 0.00 0.00 0.00 56 1017.2
20260906043912 25 137 0.0 0.0 0.00 0.00 0.00 56 1017.2
20260906043412 25 137 0.0 0.0 0.00 0.00 0.00 56 1017.2
20260906042912 25 138 0.0 0.0 0.00 0.00 0.00 56 1017.1
20260906041912 25 139 0.0 0.0 0.00 0.00 0.00 57 1017.1
20260906041412 25 139 0.0 0.0 0.00 0.00 0.00 58 1017.0
20260906040913 25 139 0.0 0.0 0.00 0.00 0.00 58 1017.0
20260906040412 25 139 0.0 0.0 0.00 0.00 0.00 58 1017.0
20260906035914 25 140 0.0 0.0 0.00 0.00 0.00 61 1017.0
20260906035412 25 140 0.0 0.0 0.00 0.00 0.00 59 1016.8
20260906034914 25 140 0.0 0.0 0.00 0.00 0.00 62 1016.7
20260906034416 25 140 0.0 0.0 0.00 0.00 0.00 58 1016.7
20260906033912 25 142 0.0 0.0 0.00 0.00 0.00 61 1016.8
20260906033412 25 142 0.0 0.0 0.00 0.00 0.00 62 1016.8
20260906032911 25 142 0.0 0.0 0.00 0.00 0.00 62 1016.7
20260906032412 25 142 0.0 0.0 0.00 0.00 0.00 61 1016.7
20260906031912 25 142 0.0 0.0 0.00 0.00 0.00 60 1016.7
20260906031412 25 142 0.0 0.0 0.00 0.00 0.00 59 1016.7
20260906030912 25 142 0.0 0.0 0.00 0.00 0.00 60 1016.7
20260906030412 25 143 0.0 0.0 0.00 0.00 0.00 58 1016.7
20260906025912 25 146 0.0 0.0 0.00 0.00 0.00 58 1016.7
20260906025413 25 147 0.0 0.0 0.00 0.00 0.00 58 1016.7
20260906024912 25 148 0.0 0.0 0.00 0.00 0.00 55 1016.7
20260906024412 25 259 0.0 0.0 0.00 0.00 0.00 55 1016.7
20260906023913 26 263 0.0 0.0 0.00 0.00 0.00 56 1016.7
20260906022912 26 263 0.0 0.0 0.00 0.00 0.00 65 1016.7
20260906022412 26 263 0.0 0.0 0.00 0.00 0.00 64 1016.8
20260906021413 26 271 0.0 0.0 0.00 0.00 0.00 63 1016.7
20260906020912 26 271 0.0 0.0 0.00 0.00 0.00 63 1016.7
20260906020412 26 272 0.0 0.0 0.00 0.00 0.00 62 1016.7
20260906015412 26 272 0.0 0.0 0.00 0.00 0.00 62 1016.7
20260906014915 26 272 0.0 0.0 0.00 0.00 0.00 62 1016.7
20260906014413 27 273 0.0 0.0 0.00 0.00 0.00 62 1016.8
20260906013912 27 274 0.0 0.0 0.00 0.00 0.00 61 1016.8
20260906013413 27 275 0.0 0.0 0.00 0.00 0.00 60 1016.8
20260906012912 27 275 0.0 0.0 0.00 0.00 0.00 60 1016.8
20260906011912 27 275 0.0 0.0 0.00 0.00 0.00 59 1016.8
20260906011411 27 291 0.0 0.0 0.00 0.00 0.00 57 1016.8
20260906010912 27 291 0.0 0.0 0.00 0.00 0.00 55 1016.8
20260906010413 27 291 0.0 1.6 0.00 0.00 0.00 54 1016.8
20260906005912 27 286 3.2 4.8 0.00 0.00 0.00 54 1016.7
20260906005412 27 279 3.2 4.8 0.00 0.00 0.00 53 1016.8
20260906004915 27 80 0.0 0.0 0.00 0.00 0.00 53 1016.8
20260906004414 26 80 0.0 0.0 0.00 0.00 0.00 51 1016.7
20260906003913 26 80 0.0 0.0 0.00 0.00 0.00 52 1016.8
20260906003412 26 80 0.0 0.0 0.00 0.00 0.00 51 1016.8
20260906001912 26 80 3.2 4.8 0.00 0.00 0.00 51 1016.8
20260906001412 26 78 0.0 0.0 0.00 0.00 0.00 51 1016.8
20260906000912 26 78 0.0 0.0 0.00 0.00 0.00 52 1016.8
20260906000412 26 78 0.0 0.0 0.00 0.00 0.00 51 1016.8
20260905235912 26 80 0.0 0.0 0.00 0.00 0.00 51 1016.8
20260905235412 26 80 0.0 0.0 0.00 0.00 0.00 52 1016.8
20260905234918 26 80 0.0 0.0 0.00 0.00 0.00 52 1016.8
20260905234414 26 80 0.0 3.2 0.00 0.00 0.00 54 1016.8
20260905233913 26 81 3.2 4.8 0.00 0.00 0.00 53 1016.9
20260905233412 26 86 3.2 3.2 0.00 0.00 0.00 53 1016.9
20260905232912 27 80 0.0 0.0 0.00 0.00 0.00 51 1016.9
20260905232412 27 288 0.0 0.0 0.00 0.00 0.00 51 1016.9
20260905231912 28 288 0.0 0.0 0.00 0.00 0.00 51 1017.0
20260905231412 28 288 0.0 0.0 0.00 0.00 0.00 51 1017.0
20260905230912 28 288 0.0 0.0 0.00 0.00 0.00 51 1017.0
20260905230412 28 288 0.0 0.0 0.00 0.00 0.00 51 1017.1
20260905225912 28 288 0.0 0.0 0.00 0.00 0.00 51 1017.1
20260905224913 28 284 0.0 0.0 0.00 0.00 0.00 50 1017.1
20260905224412 28 284 0.0 0.0 0.00 0.00 0.00 50 1017.2
20260905223912 28 284 0.0 0.0 0.00 0.00 0.00 50 1017.2
20260905222912 28 319 0.0 0.0 0.00 0.00 0.00 51 1017.2
20260905222411 28 320 0.0 0.0 0.00 0.00 0.00 52 1017.1
20260905221913 28 340 0.0 0.0 0.00 0.00 0.00 52 1017.1
20260905221413 28 85 0.0 3.2 0.00 0.00 0.00 53 1017.0
20260905220913 28 86 0.0 1.6 0.00 0.00 0.00 54 1017.0
20260905220412 28 86 0.0 0.0 0.00 0.00 0.00 54 1017.0
20260905215914 27 86 0.0 1.6 0.00 0.00 0.00 55 1017.0
20260905214416 27 88 1.6 3.2 0.00 0.00 0.00 57 1017.0
20260905213912 27 92 1.6 4.8 0.00 0.00 0.00 56 1016.9
20260905213411 27 71 0.0 3.2 0.00 0.00 0.00 57 1017.0
20260905212913 27 50 0.0 0.0 0.00 0.00 0.00 57 1017.0
20260905212412 28 50 0.0 0.0 0.00 0.00 0.00 57 1017.0
20260905211913 28 50 0.0 0.0 0.00 0.00 0.00 56 1016.9
20260905210913 28 50 0.0 0.0 0.00 0.00 0.00 57 1017.0
20260905210412 28 51 0.0 3.2 0.00 0.00 0.00 56 1016.9
20260905205912 28 65 1.6 3.2 0.00 0.00 0.00 57 1017.0
20260905205414 28 57 0.0 3.2 0.00 0.00 0.00 56 1017.1
20260905204417 28 57 1.6 3.2 0.00 0.00 0.00 55 1017.1
20260905203912 28 207 0.0 1.6 0.00 0.00 0.00 56 1017.1
20260905203412 28 210 0.0 1.6 0.00 0.00 0.00 58 1017.1
20260905201913 29 277 0.0 0.0 0.00 0.00 0.00 56 1017.1
20260905201412 29 277 0.0 0.0 0.00 0.00 0.00 55 1017.1
20260905200912 30 277 0.0 3.2 0.00 0.00 0.00 55 1017.1
20260905200412 30 269 0.0 3.2 0.00 0.00 0.00 56 1017.2
20260905195414 29 292 1.6 3.2 0.00 0.00 0.00 57 1017.3
20260905194913 29 305 1.6 3.2 0.00 0.00 0.00 58 1017.4
20260905193912 30 295 1.6 3.2 0.00 0.00 0.00 58 1017.4
20260905193411 30 260 1.6 3.2 0.00 0.00 0.00 58 1017.4
20260905192912 30 263 1.6 4.8 0.00 0.00 0.00 58 1017.3
20260905191913 30 259 1.6 3.2 0.00 0.00 0.00 57 1017.3
20260905191412 30 263 3.2 4.8 0.00 0.00 0.00 57 1017.2
20260905190912 30 256 3.2 4.8 0.00 0.00 0.00 58 1017.3
20260905185914 30 253 1.6 3.2 0.00 0.00 0.00 57 1017.1
20260905185414 30 252 3.2 4.8 0.00 0.00 0.00 57 1017.1
20260905184916 30 252 3.2 4.8 0.00 0.00 0.00 56 1017.0
20260905183913 30 223 0.0 0.0 0.00 0.00 0.00 55 1016.8
20260905183413 30 223 0.0 0.0 0.00 0.00 0.00 55 1016.8
20260905182912 30 223 0.0 0.0 0.00 0.00 0.00 55 1016.7
20260905182412 30 223 0.0 0.0 0.00 0.00 0.00 55 1016.7
20260905181912 30 223 0.0 0.0 0.00 0.00 0.00 56 1016.6
20260905180913 30 223 0.0 0.0 0.00 0.00 0.00 56 1016.4
20260905180412 30 223 1.6 3.2 0.00 0.00 0.00 55 1016.4
20260905175912 30 223 1.6 3.2 0.00 0.00 0.00 55 1016.4
20260905174414 30 223 3.2 3.2 0.00 0.00 0.00 55 1016.3
20260905173913 30 223 1.6 3.2 0.00 0.00 0.00 54 1016.2
20260905173413 30 232 1.6 4.8 0.00 0.00 0.00 53 1016.3
20260905172911 30 230 1.6 4.8 0.00 0.00 0.00 52 1016.2
20260905172413 30 239 1.6 4.8 0.00 0.00 0.00 50 1016.1
20260905171912 30 216 3.2 4.8 0.00 0.00 0.00 48 1016.1
20260905171412 31 229 3.2 4.8 0.00 0.00 0.00 49 1016.2
20260905170912 31 254 3.2 4.8 0.00 0.00 0.00 48 1016.1
20260905170412 31 254 1.6 4.8 0.00 0.00 0.00 46 1016.1
20260905165912 31 257 3.2 4.8 0.00 0.00 0.00 46 1016.1
20260905165412 31 265 1.6 4.8 0.00 0.00 0.00 45 1016.0
20260905164916 32 229 1.6 3.2 0.00 0.00 0.00 41 1016.1
20260905164413 32 228 3.2 4.8 0.00 0.00 0.00 38 1016.0
20260905163911 32 239 1.6 4.8 0.00 0.00 0.00 38 1016.0
20260905163412 32 249 0.0 3.2 0.00 0.00 0.00 38 1016.0
20260905162912 32 222 1.6 3.2 0.00 0.00 0.00 37 1016.0
20260905162412 32 104 1.6 4.8 0.00 0.00 0.00 39 1016.0
20260905161912 32 158 1.6 4.8 0.00 0.00 0.00 39 1015.9
20260905161412 32 139 3.2 4.8 0.00 0.00 0.00 39 1015.9
20260905160912 32 127 0.0 3.2 0.00 0.00 0.00 39 1015.9
20260905160411 32 95 1.6 4.8 0.00 0.00 0.00 40 1015.8
20260905155913 32 226 1.6 4.8 0.00 0.00 0.00 40 1015.9
20260905155411 32 271 1.6 4.8 0.00 0.00 0.00 40 1015.9
20260905154915 33 147 1.6 4.8 0.00 0.00 0.00 38 1015.9
20260905153912 33 191 1.6 4.8 0.00 0.00 0.00 32 1015.9
20260905153412 33 227 1.6 4.8 0.00 0.00 0.00 32 1016.0
20260905152912 33 189 3.2 4.8 0.00 0.00 0.00 33 1015.9
20260905152413 34 207 1.6 4.8 0.00 0.00 0.00 34 1015.8
20260905151912 34 185 1.6 4.8 0.00 0.00 0.00 34 1015.8
20260905151411 33 229 1.6 3.2 0.00 0.00 0.00 35 1015.8
20260905150912 33 150 1.6 4.8 0.00 0.00 0.00 33 1015.8
20260905150413 34 174 1.6 4.8 0.00 0.00 0.00 32 1015.8
20260905145411 34 144 1.6 4.8 0.00 0.00 0.00 31 1015.9
20260905144912 34 257 1.6 4.8 0.00 0.00 0.00 31 1015.9
20260905144413 34 216 1.6 4.8 0.00 0.00 0.00 32 1015.9
20260905143912 34 268 1.6 4.8 0.00 0.00 0.00 34 1015.9
20260905142912 34 179 1.6 4.8 0.00 0.00 0.00 32 1016.1
20260905141911 33 223 1.6 4.8 0.00 0.00 0.00 32 1016.1
20260905141412 33 228 1.6 4.8 0.00 0.00 0.00 33 1016.2
20260905140911 33 176 1.6 4.8 0.00 0.00 0.00 34 1016.3
20260905140412 33 203 3.2 4.8 0.00 0.00 0.00 36 1016.3
20260905135913 33 234 3.2 4.8 0.00 0.00 0.00 37 1016.3
20260905135411 32 232 3.2 4.8 0.00 0.00 0.00 38 1016.4
20260905134913 32 239 1.6 4.8 0.00 0.00 0.00 38 1016.4
20260905134417 32 226 3.2 4.8 0.00 0.00 0.00 39 1016.4
20260905133912 32 223 4.8 4.8 0.00 0.00 0.00 41 1016.5
20260905133411 32 227 3.2 8.0 0.00 0.00 0.00 42 1016.6
20260905132912 32 222 3.2 4.8 0.00 0.00 0.00 42 1016.6
20260905132412 32 212 3.2 4.8 0.00 0.00 0.00 42 1016.7
20260905131911 32 229 3.2 4.8 0.00 0.00 0.00 42 1016.7
20260905131412 32 226 4.8 4.8 0.00 0.00 0.00 41 1016.7
20260905130411 31 229 3.2 4.8 0.00 0.00 0.00 44 1016.8
20260905125911 31 227 4.8 4.8 0.00 0.00 0.00 43 1016.9
20260905125411 31 232 4.8 4.8 0.00 0.00 0.00 44 1016.9
20260905124913 31 222 4.8 4.8 0.00 0.00 0.00 43 1017.0
20260905124414 31 231 4.8 4.8 0.00 0.00 0.00 45 1017.0
20260905123912 31 230 4.8 4.8 0.00 0.00 0.00 50 1017.1
20260905123413 31 226 3.2 4.8 0.00 0.00 0.00 48 1017.2
20260905122911 32 221 4.8 4.8 0.00 0.00 0.00 46 1017.2
20260905122412 32 250 3.2 4.8 0.00 0.00 0.00 44 1017.2
20260905121912 31 244 4.8 4.8 0.00 0.00 0.00 42 1017.1
20260905121412 31 203 4.8 4.8 0.00 0.00 0.00 42 1017.1
20260905120912 31 220 4.8 4.8 0.00 0.00 0.00 40 1017.2
20260905115912 31 221 3.2 4.8 0.00 0.00 0.00 40 1017.3
20260905115411 31 235 4.8 4.8 0.00 0.00 0.00 37 1017.3
20260905114916 31 231 4.8 8.0 0.00 0.00 0.00 34 1017.3
20260905114416 31 237 4.8 4.8 0.00 0.00 0.00 36 1017.3
20260905113911 31 232 4.8 4.8 0.00 0.00 0.00 30 1017.4
20260905113412 32 236 4.8 4.8 0.00 0.00 0.00 28 1017.4
20260905112912 31 236 3.2 4.8 0.00 0.00 0.00 29 1017.5
20260905112412 31 233 3.2 4.8 0.00 0.00 0.00 32 1017.5
20260905111912 31 249 3.2 4.8 0.00 0.00 0.00 31 1017.5
20260905111411 31 244 4.8 4.8 0.00 0.00 0.00 34 1017.5
20260905110412 31 233 4.8 4.8 0.00 0.00 0.00 32 1017.6
20260905105912 30 247 4.8 4.8 0.00 0.00 0.00 33 1017.6
20260905105412 30 234 3.2 4.8 0.00 0.00 0.00 37 1017.6
20260905104911 30 235 4.8 4.8 0.00 0.00 0.00 36 1017.7
20260905103911 30 234 3.2 4.8 0.00 0.00 0.00 35 1017.7
20260905103412 30 239 4.8 4.8 0.00 0.00 0.00 40 1017.8
20260905102412 30 248 3.2 4.8 0.00 0.00 0.00 41 1017.8
20260905101411 30 249 3.2 4.8 0.00 0.00 0.00 48 1017.9
20260905100913 30 242 3.2 4.8 0.00 0.00 0.00 43 1017.9
20260905100412 30 235 3.2 4.8 0.00 0.00 0.00 47 1017.9
20260905095412 30 236 3.2 4.8 0.00 0.00 0.00 44 1017.9
20260905094912 30 234 3.2 4.8 0.00 0.00 0.00 39 1018.0
20260905094411 30 241 3.2 4.8 0.00 0.00 0.00 39 1018.0
20260905093412 30 235 4.8 4.8 0.00 0.00 0.00 36 1018.1
20260905092912 29 241 3.2 4.8 0.00 0.00 0.00 42 1018.1
20260905092411 29 245 3.2 4.8 0.00 0.00 0.00 44 1018.1
20260905091411 29 249 3.2 4.8 0.00 0.00 0.00 41 1018.2
20260905090913 29 248 3.2 4.8 0.00 0.00 0.00 43 1018.2
20260905085913 28 243 3.2 4.8 0.00 0.00 0.00 43 1018.2
20260905085411 28 235 3.2 4.8 0.00 0.00 0.00 48 1018.2
20260905084911 28 239 3.2 4.8 0.00 0.00 0.00 51 1018.2
20260905084412 27 214 3.2 4.8 0.00 0.00 0.00 54 1018.3
20260905083911 27 259 1.6 4.8 0.00 0.00 0.00 56 1018.3
20260905083411 27 281 3.2 4.8 0.00 0.00 0.00 56 1018.3
20260905082912 27 234 3.2 4.8 0.00 0.00 0.00 57 1018.3
20260905082419 27 218 3.2 4.8 0.00 0.00 0.00 56 1018.3
20260905081911 27 269 3.2 4.8 0.00 0.00 0.00 56 1018.3
20260905081412 27 242 3.2 4.8 0.00 0.00 0.00 55 1018.2
20260905080912 27 249 3.2 4.8 0.00 0.00 0.00 56 1018.2
20260905080413 27 244 3.2 4.8 0.00 0.00 0.00 58 1018.1
20260905075912 27 261 3.2 4.8 0.00 0.00 0.00 56 1018.1
20260905075412 27 253 3.2 4.8 0.00 0.00 0.00 58 1018.0
20260905074912 27 244 3.2 4.8 0.00 0.00 0.00 56 1017.9
20260905074413 27 222 3.2 4.8 0.00 0.00 0.00 54 1017.9
20260905073913 27 222 3.2 4.8 0.00 0.00 0.00 51 1017.8
20260905072912 28 235 3.2 4.8 0.00 0.00 0.00 50 1017.7
20260905072411 27 227 1.6 4.8 0.00 0.00 0.00 50 1017.7
20260905071912 27 217 1.6 4.8 0.00 0.00 0.00 50 1017.6
20260905071411 27 216 1.6 4.8 0.00 0.00 0.00 51 1017.6
20260905070913 27 224 1.6 4.8 0.00 0.00 0.00 52 1017.6
20260905070411 27 224 0.0 0.0 0.00 0.00 0.00 51 1017.6
20260905065411 28 224 0.0 0.0 0.00 0.00 0.00 51 1017.5
20260905064911 28 224 0.0 0.0 0.00 0.00 0.00 50 1017.5
20260905064412 28 224 0.0 0.0 0.00 0.00 0.00 51 1017.5
20260905063411 27 224 0.0 0.0 0.00 0.00 0.00 53 1017.5
20260905062911 27 224 0.0 0.0 0.00 0.00 0.00 54 1017.5
20260905062411 26 224 0.0 0.0 0.00 0.00 0.00 56 1017.6
20260905061912 26 224 0.0 0.0 0.00 0.00 0.00 57 1017.6
20260905061411 26 224 0.0 0.0 0.00 0.00 0.00 57 1017.7
20260905060911 26 224 0.0 0.0 0.00 0.00 0.00 57 1017.7
20260905060412 26 224 0.0 0.0 0.00 0.00 0.00 57 1017.7
20260905055912 26 224 0.0 3.2 0.00 0.00 0.00 56 1017.7
20260905055412 26 224 1.6 3.2 0.00 0.00 0.00 56 1017.7
20260905054911 26 224 1.6 4.8 0.00 0.00 0.00 55 1017.7
20260905054412 26 224 1.6 3.2 0.00 0.00 0.00 52 1017.7
20260905053912 26 224 1.6 3.2 0.00 0.00 0.00 51 1017.7
20260905053413 26 224 1.6 4.8 0.00 0.00 0.00 50 1017.6
20260905052912 26 224 0.0 3.2 0.00 0.00 0.00 53 1017.6